This is the latest recevied weather packets stored in our database for station/object EA1PI-10. If no packets are shown the sender has not sent any weather packets the latest 1 day(s).
| Time | Temp. | Humidity | Pressure | Rain* | Wind** | Luminosity | Snow |
|---|---|---|---|---|---|---|---|
| 1777763902 | 21.11° C | 49% | 980.1 hPa | - | - | - | - |
| 1777762102 | 21.11° C | 48% | 980 hPa | - | - | - | - |
| 1777760302 | 20.56° C | 49% | 980.2 hPa | - | - | - | - |
| 1777758501 | 21.11° C | 48% | 980.3 hPa | - | - | - | - |
| 1777756701 | 21.11° C | 49% | 980.4 hPa | - | - | - | - |
| 1777754901 | 21.11° C | 48% | 980.3 hPa | - | - | - | - |
| 1777753101 | 21.11° C | 48% | 980.1 hPa | - | - | - | - |
| 1777751301 | 21.11° C | 48% | 980.3 hPa | - | - | - | - |
| 1777749501 | 21.67° C | 47% | 980.2 hPa | - | - | - | - |
| 1777747701 | 21.67° C | 47% | 980.2 hPa | - | - | - | - |
| 1777745901 | 21.11° C | 47% | 979.9 hPa | - | - | - | - |
| 1777744101 | 21.11° C | 47% | 980 hPa | - | - | - | - |
| 1777742301 | 21.11° C | 48% | 980.2 hPa | - | - | - | - |
| 1777740500 | 21.67° C | 47% | 980.3 hPa | - | - | - | - |
| 1777738700 | 21.67° C | 48% | 980.1 hPa | - | - | - | - |
| 1777736900 | 21.67° C | 48% | 980.4 hPa | - | - | - | - |
| 1777735100 | 21.11° C | 48% | 980.3 hPa | - | - | - | - |
| 1777733300 | 21.11° C | 48% | 980.9 hPa | - | - | - | - |
| 1777731500 | 21.11° C | 48% | 981.1 hPa | - | - | - | - |
| 1777729700 | 21.11° C | 48% | 980 hPa | - | - | - | - |
| 1777727899 | 18.89° C | 56% | 980.6 hPa | - | - | - | - |
* Rain since midnight (hover to see other rain measurements)
** Current wind speed in m/s (hover to see current wind gust speed)